Tracking 31027 objects as of 18-Jul-2025
HD Live streaming from Space Station
objects crossing your sky now

START 1 DEB

Track START 1 DEB now!
10-day predictions


NORAD ID: 27752
Int'l Code: 1993-014G
Perigee: 675.3 km
Apogee: 931.8 km
Inclination: 75.8 °
Period: 100.8 minutes
Semi major axis: 7174 km
RCS: 0.017 m2 (small)
Launch date: March 25, 1993
Source: Commonwealth of Independent States (former USSR) (CIS)
Launch site: PLESETSK MISSILE AND SPACE COMPLEX (PKMTR)

Note: This is SATELLITE DEBRIS
Your satellite tracking list
Your tracking list is empty




NASA's NSSDC Master Catalog

Two Line Element Set (TLE):
1 27752U 93014G   25197.09437982  .00000384  00000-0  13317-3 0  9999
2 27752  75.7603 107.3680 0178714  97.8405 264.3082 14.28603474210893
Source of the keplerian elements: AFSPC